Flag for Germany Weather past 2 weeks in Flensburg, Schleswig-Holstein, Germany

Now
55 °F

Sprinkles. Broken clouds.


Feels Like: 53 °F
Forecast: 54 / 59 °F
Wind: 9 mph from South

Location: Soenderborg Lufthavn

Current Time: Jul 29, 2015 at 10:35:49 PM

Latest Report: Jul 29, 2015 at 8:50 PM


Visibility: N/A

Pressure: 29.45 "Hg

Humidity: 94%

Dew point: 54 °F

Location of FlensburgLocation

Historic Weather in Flensburg — Graph

°F

Flensburg temperature yesterday

Maximum temperature yesterday: 64 °F (at 4:50 PM)
Minimum temperature yesterday: 59 °F (at 5:20 AM)
Average temperature yesterday: 61 °F

Past Weeks' High & Low Weather Summary

 TemperatureHumidityPressure
High75 °F (Jul 22, 12:52 PM)100% (Jul 19, 9:20 PM)30.09 "Hg (Jul 19, 9:20 PM)
Low52 °F (Jul 20, 5:50 AM)43% (Jul 18, 4:50 PM)29.36 "Hg (Jul 28, 5:20 AM)
Average63 °F73%29.76 "Hg
* Reported Jul 14 8:50 PM — Jul 29 8:50 PM, Flensburg, Weather by CustomWeather, © 2015

Note: Actual official high and low records may vary slightly from our data, if they occured in-between our weather recording intervals... More about our weather records

Advertising

Flensburg weather history for previous 24 hours

 ConditionsComfort  
Time TempWeatherWind HumidityBarometerVisibility
8:50 PM
Wed, Jul 29
55 °FSprinkles. Broken clouds.9 mph94%29.45 "HgN/A
7:50 PM57 °FSprinkles. Scattered clouds.10 mph88%29.47 "HgN/A
7:20 PM57 °FSprinkles. Scattered clouds.10 mph82%29.47 "HgN/A
6:50 PM61 °FSprinkles. Scattered clouds.13 mph72%29.47 "HgN/A
5:50 PM61 °FSprinkles. Scattered clouds.12 mph72%29.47 "HgN/A
5:20 PM63 °FSprinkles. Scattered clouds.15 mph64%29.47 "HgN/A
4:50 PM63 °FSprinkles. Scattered clouds.15 mph64%29.47 "HgN/A
4:20 PM61 °FSprinkles. Scattered clouds.10 mph72%29.47 "HgN/A
3:50 PM59 °FSprinkles. Scattered clouds.9 mph77%29.50 "HgN/A
3:23 PM63 °FSprinkles. Scattered clouds.13 mph68%29.50 "HgN/A
2:20 PM59 °FScattered clouds.12 mph77%29.50 "HgN/A
1:51 PM61 °FScattered clouds.14 mph72%29.50 "HgN/A
12:50 PM55 °FSprinkles. Broken clouds.7 mph88%29.50 "HgN/A
12:20 PM55 °FRain showers. Scattered clouds.13 mph88%29.50 "Hg4 mi
11:50 AM57 °FSprinkles. Scattered clouds.8 mph88%29.50 "HgN/A
10:50 AM55 °FScattered clouds.6 mph88%29.50 "HgN/A
10:20 AM55 °FSprinkles. Scattered clouds.12 mph88%29.50 "Hg4 mi
9:51 AM59 °FSprinkles. Scattered clouds.14 mph77%29.50 "HgN/A
8:50 AM61 °FScattered clouds.10 mph77%29.50 "HgN/A
7:50 AM59 °FScattered clouds.8 mph88%29.50 "HgN/A
6:50 AM57 °FSprinkles. Scattered clouds.6 mph88%29.50 "HgN/A
Weather by CustomWeather, © 2015

See weather overviewHow to use our weather pages